Location: Nelson
(41.2830°S, 173.2830°E)
Time: 15:37:27
(UTC+13:00)

Cosmos 2292 Rocket - Visible Passes

Search period start: 29 September 2021 00:00
Search period end: 09 October 2021 00:00
Orbit: 379 x 1446 km, 83.0° (Epoch: 28 September)

Date Brightness Start Highest point End Pass type
(mag) Time Alt. Az. Time Alt. Az. Time Alt. Az.
29 Sep 6.2 03:00:22 28° ESE 03:00:22 28° ESE 03:06:09 10° SSE visible
29 Sep 4.9 04:43:42 48° WSW 04:43:42 48° WSW 04:50:54 10° S visible
30 Sep 5.9 03:06:59 36° ESE 03:06:59 36° ESE 03:13:13 10° SSE visible
30 Sep 5.2 04:50:19 39° WSW 04:50:23 39° WSW 04:57:30 10° S visible
01 Oct 5.6 03:13:35 45° ESE 03:13:35 45° ESE 03:20:10 10° SSE visible
01 Oct 5.5 04:56:55 32° WSW 04:57:13 32° WSW 05:04:04 10° S visible
02 Oct 5.3 03:20:12 56° ESE 03:20:12 56° ESE 03:27:04 10° SSE visible
02 Oct 5.8 05:03:31 26° WSW 05:04:05 26° WSW 05:10:32 10° SSW visible
03 Oct 7.1 01:43:28 13° ESE 01:43:41 13° ESE 01:46:38 10° SE visible
03 Oct 5.1 03:26:48 66° SE 03:26:48 66° SE 03:33:53 10° S visible
03 Oct 6.1 05:10:07 21° WSW 05:11:00 22° WSW 05:16:55 10° SSW visible
04 Oct 6.9 01:50:03 17° ESE 01:50:03 17° ESE 01:54:30 10° SE visible
04 Oct 5.0 03:33:23 71° S 03:33:23 71° S 03:40:39 10° S visible
04 Oct 6.3 05:16:43 17° WSW 05:17:58 18° WSW 05:23:11 10° SSW visible
05 Oct 6.7 01:56:39 22° ESE 01:56:39 22° ESE 02:01:54 10° SSE visible
05 Oct 5.0 03:39:58 66° SW 03:39:58 66° SW 03:47:23 10° S visible
05 Oct 6.5 05:23:18 14° WSW 05:24:58 15° WSW 05:29:16 10° SSW visible
06 Oct 6.4 02:03:13 27° ESE 02:03:13 27° ESE 02:09:06 10° SSE visible
06 Oct 5.2 03:46:33 57° SW 03:46:33 57° SW 03:54:03 10° S visible
06 Oct 6.7 05:29:52 11° WSW 05:31:59 12° SW 05:34:58 10° SSW visible
07 Oct 6.2 02:09:48 34° ESE 02:09:48 34° ESE 02:16:08 10° SSE visible
07 Oct 5.4 03:53:07 48° WSW 03:53:07 48° WSW 04:00:40 10° S visible
08 Oct 5.9 02:16:21 42° ESE 02:16:21 42° ESE 02:23:05 10° SSE visible
08 Oct 5.6 03:59:41 40° WSW 03:59:41 40° WSW 04:07:14 10° S visible
